Moses Lake, WA
on Friday, January 4, 2013

Friday
Previous Day Next Day
Daily Summary
 ActualAverageRecord
Temperature
Mean Temperature °F 28°F  
Max Temperature 29°F 34°F 46°F (2000)
Min Temperature 19°F 22°F -9°F (2004)
Degree Days
Heating Degree Days 41 37  
Month to date heating degree days 159 148  
Since 1 July heating degree days 2367 2735  
Cooling Degree Days 0 0  
Month to date cooling degree days 0 0  
Year to date cooling degree days 0 0  
Moisture
Dew Point 19°F   
Average Humidity 77    
Maximum Humidity 84    
Minimum Humidity 69    
Precipitation
Precipitation 0.00 in 0.06 in 0.34 in (2009)
Month to date precipitation 0.00 0.21  
Year to date precipitation 0.00 0.21  
Wind
Wind Speed 4 mph   
Max Wind Speed 10 mph   
Max Gust Speed 13 mph   
Visibility 10 miles   
Events     

Key: T is trace of precipitation, MM is missing value
Source: NWS Daily Summary
Time(PST)TemperatureDew PointHumidity Pressure Visibility Wind DirectionWind SpeedGust SpeedPrecipitationEvents Conditions
12:35 AM 19.4°F 15.8°F 86% 30.38 in 9.0 miles NNE 4.6 mph - N/A   Overcast
12:52 AM 19.9°F 16.0°F 85% 30.43 in 10.0 miles Calm Calm - N/A   Overcast
1:04 AM 19.4°F 15.8°F 86% 30.37 in 9.0 miles Calm Calm - N/A   Overcast
1:52 AM 19.0°F 15.1°F 85% 30.44 in 9.0 miles NE 3.5 mph - N/A   Mostly Cloudy
2:52 AM 21.0°F 16.0°F 81% 30.44 in 10.0 miles ESE 3.5 mph - N/A   Overcast
3:52 AM 21.9°F 17.1°F 82% 30.44 in 10.0 miles Calm Calm - N/A   Overcast
4:52 AM 21.9°F 17.1°F 82% 30.45 in 10.0 miles Calm Calm - N/A   Overcast
5:07 AM 21.2°F 17.6°F 86% 30.39 in 10.0 miles Calm Calm - N/A   Overcast
5:52 AM 23.0°F 17.1°F 78% 30.45 in 10.0 miles NNE 3.5 mph - N/A   Overcast
6:52 AM 23.0°F 18.0°F 81% 30.45 in 10.0 miles NNE 4.6 mph - N/A   Overcast
7:52 AM 24.1°F 18.0°F 77% 30.46 in 10.0 miles Calm Calm - N/A   Overcast
8:52 AM 25.0°F 19.0°F 78% 30.47 in 10.0 miles NNE 3.5 mph - N/A   Overcast
9:52 AM 26.1°F 19.0°F 75% 30.49 in 10.0 miles NNE 3.5 mph - N/A   Overcast
10:52 AM 27.0°F 19.0°F 72% 30.49 in 10.0 miles Calm Calm - N/A   Overcast
11:52 AM 28.0°F 19.0°F 69% 30.47 in 10.0 miles Calm Calm - N/A   Overcast
12:52 PM 28.0°F 19.0°F 69% 30.46 in 10.0 miles Calm Calm - N/A   Overcast
1:52 PM 28.9°F 19.9°F 69% 30.46 in 10.0 miles Calm Calm - N/A   Overcast
2:52 PM 28.0°F 19.9°F 72% 30.46 in 10.0 miles NNE 6.9 mph - N/A   Overcast
3:52 PM 28.0°F 19.0°F 69% 30.45 in 10.0 miles NNE 5.8 mph - N/A   Overcast
4:52 PM 28.0°F 19.9°F 72% 30.46 in 10.0 miles North 5.8 mph - N/A   Overcast
5:52 PM 27.0°F 21.0°F 78% 30.45 in 10.0 miles North 4.6 mph - N/A   Overcast
6:52 PM 27.0°F 21.9°F 81% 30.46 in 9.0 miles NW 3.5 mph - N/A   Overcast
7:52 PM 27.0°F 21.0°F 78% 30.45 in 10.0 miles NNW 5.8 mph - N/A   Overcast
8:52 PM 27.0°F 21.0°F 78% 30.45 in 10.0 miles North 8.1 mph - N/A   Overcast
9:52 PM 27.0°F 21.0°F 78% 30.46 in 10.0 miles NNW 5.8 mph - N/A   Overcast
10:52 PM 28.0°F 21.9°F 78% 30.45 in 10.0 miles NNW 9.2 mph - N/A   Overcast
11:52 PM 28.0°F 23.0°F 81% 30.44 in 10.0 miles North 6.9 mph - N/A   Overcast
Moon Phase
Jan. 04 Jan. 04 Jan. 11 Jan. 18 Jan. 26
Sunrise:07:43 AM (PST) Moon Rise:No Moon Rise/
Sunset:04:21 PM (PST) Moon Set:10:57 AM (PST)1/4

Copyright © 2014 The Weather Underground, Inc.